Theta_e
338 339 340 339 342 341 339 340 342 341 342 342 342 343 345 345 345 342 341 341 341 341 340 340 341 340 336 332 331 329 329 328 328 327 328 329 330 330 331 331 331 330 330 329 330 330 329 328 327 327 326 325 324 324 324 322 322 322 321 321 320 321 321 321 320 321 320 319 319 319 319 319 320 319 319 319 319 321 319 320 320 319 319 320 320
341 341 341 340 341 341 340 341 341 343 344 345 346 347 345 344 343 342 341 341 340 339 340 340 338 336 332 329 328 327 327 326 326 326 329 330 330 330 329 329 329 329 329 329 329 328 328 327 326 326 325 325 324 323 323 322 321 321 321 321 320 320 320 320 320 322 320 318 319 319 319 319 319 319 319 319 319 319 319 319 319 319 319 319 319
343 343 344 342 341 342 343 343 343 345 346 347 348 347 347 345 343 341 341 341 340 340 339 338 335 331 330 327 326 326 326 327 326 326 326 328 328 328 327 327 328 328 327 327 328 327 327 326 326 325 325 324 324 324 323 322 322 320 320 320 319 319 320 320 320 320 319 318 318 319 319 318 318 318 318 318 318 318 318 319 318 318 318 319 318
346 345 345 344 342 341 344 344 345 346 348 347 347 347 347 344 344 345 344 342 340 339 339 336 332 329 327 325 326 325 324 325 325 325 325 326 327 328 327 326 327 326 326 326 326 326 326 326 325 325 323 323 323 323 323 323 321 319 319 320 319 319 320 320 320 319 318 318 319 319 317 318 320 318 317 318 318 318 318 318 317 318 318 318 318
346 346 346 345 345 343 343 345 346 347 347 348 347 347 345 344 343 344 342 341 339 339 337 335 331 328 327 325 325 324 324 324 324 324 323 323 324 325 327 326 326 325 325 325 325 325 325 324 324 324 323 323 323 321 321 321 320 320 319 320 319 319 320 319 319 318 318 318 319 318 317 319 318 316 317 318 318 318 317 317 317 317 317 318 318
345 346 347 345 345 345 345 346 347 347 347 347 345 345 343 342 340 341 340 339 338 338 335 331 328 327 327 326 326 326 325 322 323 323 322 322 323 323 323 324 325 325 324 323 323 323 322 322 322 320 319 321 322 321 321 320 320 319 319 319 318 319 319 319 319 318 318 318 318 317 317 318 318 316 317 317 318 317 317 317 317 318 318 318 318
346 347 345 346 345 346 346 347 347 347 346 346 346 345 343 341 339 339 340 339 338 336 333 330 327 326 326 327 325 325 325 323 322 321 319 321 322 322 322 321 321 322 323 321 321 321 320 320 318 317 318 320 321 321 321 319 319 319 319 319 318 318 319 319 318 317 317 318 317 316 317 317 317 317 316 317 317 317 317 317 318 318 318 317 317
347 347 346 346 346 347 346 347 346 347 347 347 347 343 341 340 340 340 338 337 336 334 332 329 328 326 327 326 325 324 323 322 321 319 317 319 319 321 320 320 320 319 319 319 320 319 317 317 316 316 316 316 316 317 319 319 318 318 318 318 318 317 319 318 318 317 317 317 316 316 316 316 316 316 316 316 318 318 317 317 317 317 316 316 315
347 346 346 347 348 347 345 347 348 346 346 346 345 342 339 337 338 340 340 335 333 330 330 329 327 326 325 325 325 324 322 321 320 318 317 317 318 318 319 318 318 317 319 318 318 316 315 315 315 315 315 315 315 315 317 318 318 318 318 318 317 317 317 319 318 317 316 317 317 316 316 316 315 316 316 316 318 316 316 317 317 316 315 315 314
347 346 347 348 348 346 345 347 347 346 346 345 343 340 338 337 335 337 338 336 332 330 328 326 325 324 323 322 323 322 321 320 319 316 315 314 315 316 317 318 316 316 315 317 317 317 316 315 314 314 315 314 314 314 315 315 316 317 317 317 317 317 317 318 318 317 316 316 316 316 315 315 315 316 315 316 316 316 316 317 316 315 315 315 315
346 346 346 346 345 345 345 346 346 345 344 342 339 337 337 335 334 332 334 336 333 330 327 325 323 321 321 321 322 323 321 320 318 315 313 314 314 314 314 315 315 314 314 314 313 313 313 314 313 314 313 315 314 313 314 314 314 315 317 317 317 317 317 317 318 318 317 316 316 314 316 315 314 315 315 316 316 315 316 315 315 315 314 314 314
345 346 346 347 345 344 345 346 345 344 342 339 336 335 334 332 331 331 330 328 329 327 326 324 322 320 319 319 320 320 320 318 317 316 315 314 313 313 313 313 313 313 313 313 314 315 315 315 314 312 312 311 314 313 313 316 316 313 315 316 317 317 317 317 318 318 317 317 317 315 315 315 314 315 315 316 315 315 314 314 314 314 314 313 313
345 345 346 345 346 345 345 344 344 343 342 340 337 334 333 333 330 330 328 326 325 325 325 324 320 317 317 316 317 318 319 318 316 316 316 316 314 312 313 312 312 312 313 315 314 315 315 315 314 314 312 309 310 311 312 315 312 312 313 314 315 317 317 317 317 317 317 316 316 315 315 315 314 315 315 315 314 313 313 313 313 313 313 313 312
345 345 345 346 345 344 344 344 343 342 342 339 334 331 331 330 329 327 329 327 324 324 323 324 321 318 313 312 313 314 317 316 315 315 317 316 316 316 315 314 312 313 314 313 314 314 314 314 315 313 311 311 311 312 313 314 313 311 312 312 314 315 315 316 316 317 317 317 316 315 315 315 314 315 315 314 313 312 312 313 313 312 312 312 312
345 345 344 346 345 344 343 343 343 341 336 334 332 330 329 328 329 327 324 325 324 324 324 329 323 319 318 313 310 309 312 312 315 315 315 316 316 316 316 315 314 314 314 313 312 312 312 314 313 312 312 312 311 312 312 312 313 314 313 313 313 313 314 315 315 315 316 317 316 315 315 314 314 314 314 313 313 312 312 312 312 312 312 311 311
344 344 344 346 345 344 344 342 342 340 338 334 331 329 329 328 329 328 327 321 320 320 324 323 322 317 313 316 314 314 310 310 311 313 315 315 315 315 316 315 315 315 316 312 311 312 312 311 311 312 312 313 312 312 312 312 311 311 313 313 312 312 312 313 313 315 316 317 316 315 315 314 314 313 314 313 312 312 311 312 312 312 312 312 312
345 345 344 345 344 344 342 342 341 339 337 333 330 328 328 329 330 328 326 323 319 320 320 323 322 327 321 312 309 310 314 314 311 311 313 311 313 313 315 315 314 314 312 311 311 312 313 310 312 312 313 313 313 312 312 312 312 313 313 313 312 312 312 311 312 313 315 316 316 315 315 314 314 313 314 313 313 312 312 312 312 312 312 312 311
344 345 344 344 343 343 342 340 339 337 335 332 331 329 328 329 329 329 327 328 324 320 318 323 322 323 324 328 324 317 314 310 310 307 312 314 313 312 312 314 313 312 311 309 308 308 311 309 312 312 313 312 311 311 311 311 311 312 312 313 312 312 313 312 311 312 315 316 315 315 315 314 313 313 313 312 312 312 312 312 312 312 312 312 312
344 345 345 344 343 342 342 340 338 337 336 334 330 330 329 329 328 328 328 328 326 321 320 319 321 321 321 325 324 325 318 312 309 308 304 309 311 312 312 312 313 310 309 308 308 310 311 310 309 310 311 311 311 311 311 310 308 310 311 311 311 311 311 312 313 314 313 314 314 314 314 313 313 312 311 311 311 311 311 312 312 312 312 312 312
343 343 345 343 342 341 341 340 337 336 334 333 333 332 331 331 330 331 331 328 326 325 322 321 318 318 321 320 322 320 319 315 316 311 310 305 305 310 313 315 315 314 312 310 309 310 311 311 308 309 309 309 310 309 309 309 309 311 313 311 311 311 311 311 311 312 314 314 313 313 314 312 312 311 311 311 311 311 311 311 312 312 312 312 311
343 343 344 343 341 341 340 339 337 336 334 335 336 334 332 331 329 329 329 327 328 330 326 322 322 322 319 319 320 318 314 316 314 312 308 307 305 304 305 311 313 314 313 313 312 312 310 310 309 310 310 310 310 309 309 309 309 311 310 311 311 311 310 310 310 310 310 313 313 312 313 312 312 312 312 311 311 311 311 311 311 312 313 311 310
341 343 342 341 340 340 339 338 338 337 334 336 335 333 332 332 331 330 330 328 327 329 328 327 324 326 322 321 318 317 316 314 312 311 310 311 307 304 307 306 304 309 314 312 312 311 311 312 310 308 309 310 309 309 310 310 310 309 310 309 310 310 310 310 311 309 309 311 313 311 310 311 311 312 312 311 311 311 311 311 312 312 312 310 308
339 340 340 339 340 339 339 338 338 338 336 335 333 332 334 333 331 330 329 329 326 326 324 324 324 325 323 322 320 319 318 317 316 313 312 309 308 308 308 307 306 309 310 312 312 311 309 310 309 309 309 309 309 309 310 310 307 306 306 307 308 310 310 310 312 310 308 309 310 312 310 310 311 312 311 311 311 311 311 312 311 310 308 308 307
338 338 338 338 339 338 338 336 335 336 335 335 335 335 333 331 330 329 329 329 328 325 324 321 322 324 323 323 322 323 323 322 322 319 315 314 313 313 309 308 307 307 308 310 310 308 307 308 308 309 308 308 308 308 308 309 309 305 307 305 307 308 309 310 309 310 310 308 308 311 312 311 311 311 311 311 311 311 310 309 308 307 307 306 307
336 337 336 337 337 337 335 335 335 336 336 335 334 331 329 329 330 328 328 328 327 325 323 323 324 324 323 324 324 324 323 325 325 322 320 320 316 313 310 309 305 305 305 307 305 307 308 307 307 307 307 307 306 307 308 308 308 307 306 306 304 306 307 308 309 309 309 309 308 308 310 312 312 312 312 312 311 310 308 307 306 307 306 307 308
335 335 335 335 335 336 335 335 336 335 333 330 327 328 328 328 329 328 328 328 328 326 324 325 326 327 327 323 322 322 323 324 323 323 320 317 314 314 310 308 309 304 304 305 305 303 304 307 307 307 306 306 306 308 308 307 309 305 304 307 307 304 306 306 307 308 308 308 308 307 308 308 310 310 310 312 311 309 308 307 306 306 308 309 308
335 336 334 334 335 334 335 335 333 332 328 327 328 328 328 326 326 325 323 324 324 325 325 325 323 323 324 323 323 323 323 321 321 321 320 319 318 316 311 306 305 305 303 303 304 304 304 306 307 306 307 308 308 308 307 307 305 303 305 309 309 303 305 305 306 307 307 307 308 307 307 307 308 308 309 311 311 310 307 305 306 309 309 309 308
336 334 332 333 332 333 333 333 329 328 327 328 327 325 325 325 323 322 321 318 321 323 324 324 323 323 323 323 322 320 321 319 319 319 318 319 319 318 314 311 306 302 304 302 302 302 305 303 305 306 306 306 306 308 306 308 307 303 305 308 309 309 306 305 304 306 306 306 307 306 306 307 308 308 309 310 309 309 308 309 310 309 309 309 308
334 332 331 332 332 332 331 330 327 329 327 327 326 324 324 324 323 321 319 317 321 322 323 322 323 322 321 320 319 320 317 318 316 317 318 318 317 317 315 312 311 307 302 301 302 302 303 305 302 303 305 305 306 307 306 307 307 306 307 308 308 310 307 304 304 304 305 305 305 305 305 307 307 307 309 310 310 310 309 310 309 308 308 308 308
332 331 331 331 331 330 330 328 328 327 326 325 324 323 323 322 320 320 320 319 320 320 320 320 320 319 318 317 317 316 316 315 315 316 316 316 315 315 315 315 314 309 307 303 304 306 304 305 306 302 304 304 305 306 306 306 305 308 306 306 308 308 306 305 303 303 303 303 303 303 305 306 306 307 308 309 309 308 309 308 307 307 307 307 307
330 330 330 329 329 329 329 328 327 325 325 324 323 322 322 320 319 320 318 318 318 317 317 317 316 316 316 315 315 314 314 314 314 313 314 313 314 313 314 315 314 314 311 307 304 306 308 304 305 306 303 303 304 305 305 305 306 306 307 307 305 306 305 306 303 304 303 302 302 304 305 305 305 305 306 308 307 307 307 307 306 306 306 306 305
330 329 329 328 328 327 327 326 325 324 323 322 323 323 322 321 319 318 317 317 316 316 314 313 312 314 313 312 312 312 312 312 312 312 312 313 313 312 312 312 312 313 312 309 305 305 306 307 306 305 304 304 303 303 303 304 304 305 307 306 306 307 306 306 305 303 303 302 302 302 303 303 303 304 306 306 306 306 306 305 304 304 304 304 303
330 328 328 328 327 327 326 325 324 323 322 322 322 322 321 320 318 317 316 315 314 314 313 312 311 313 313 311 311 311 312 311 310 310 309 309 311 311 311 310 310 311 309 308 305 306 305 308 307 304 304 305 302 303 301 304 304 305 306 306 307 306 306 306 306 304 302 302 301 300 300 301 302 304 304 304 303 303 303 301 301 302 303 303 301
329 328 328 328 327 326 325 324 323 322 322 321 320 320 319 317 317 315 315 314 313 313 312 311 311 312 313 310 308 309 310 309 309 307 307 307 306 307 309 309 308 309 312 308 307 305 303 305 305 306 305 305 301 302 303 304 305 305 302 303 305 305 306 306 306 306 301 301 300 300 300 300 300 301 300 300 299 299 299 299 299 299 301 301 297
328 328 327 326 326 325 324 323 322 321 321 320 320 319 318 317 315 314 314 313 313 312 311 311 309 310 310 310 309 309 310 309 310 309 309 307 307 307 307 308 309 309 308 310 308 306 304 303 306 303 303 302 302 300 301 303 304 303 302 302 303 303 304 306 306 306 302 300 300 300 300 300 300 299 298 299 299 298 298 299 299 299 298 299 298
326 327 326 325 324 324 323 322 321 320 319 319 318 318 317 316 315 313 312 312 313 313 312 311 309 309 309 309 309 310 310 309 308 308 308 308 307 306 306 307 308 307 309 309 309 308 305 303 304 303 303 301 301 301 301 302 301 301 302 303 304 305 305 304 305 305 303 302 301 300 301 301 299 299 298 298 299 299 298 298 298 298 298 299 299
326 325 324 323 323 322 322 321 320 319 319 318 317 317 316 315 314 313 312 312 313 312 312 311 309 310 310 310 309 309 309 308 308 307 307 308 306 306 306 306 306 308 308 308 307 307 305 303 303 304 304 303 304 303 302 301 303 304 306 306 303 304 305 305 306 305 304 302 301 302 301 300 300 300 299 299 299 298 298 298 298 299 299 299 299
325 324 322 321 321 320 321 321 320 319 318 317 317 316 315 314 314 313 312 312 312 311 311 310 310 311 310 310 309 309 308 308 308 308 308 307 307 306 306 305 305 307 307 306 306 306 305 304 303 300 302 301 299 301 303 302 301 302 303 304 306 308 306 305 304 304 307 306 308 307 305 303 302 301 300 300 298 298 298 298 299 299 300 300 299
324 322 321 320 320 321 321 320 319 318 317 316 316 316 314 313 313 312 312 312 311 311 310 310 310 310 310 310 310 309 308 309 309 308 308 309 308 307 307 307 306 307 306 304 304 305 304 303 302 302 299 302 302 300 301 300 301 302 302 302 302 304 305 305 303 304 305 306 305 302 303 303 302 304 302 299 298 299 300 299 300 301 301 300 299
324 322 320 320 319 319 319 319 319 318 316 315 315 315 314 313 312 312 311 311 310 309 310 309 310 310 310 310 309 309 309 309 309 309 309 308 308 307 308 309 308 305 304 304 305 303 303 303 300 299 300 300 300 302 301 301 302 302 303 301 299 300 302 304 306 303 305 305 305 306 305 305 304 304 301 301 302 301 301 302 303 303 302 300 298
324 322 320 319 318 317 317 317 316 316 315 315 315 314 314 313 313 311 311 310 310 309 309 309 309 309 309 310 310 309 310 309 308 308 309 309 309 308 308 307 305 304 304 304 304 303 302 301 300 301 300 299 300 300 300 301 301 301 303 303 302 303 303 303 304 306 303 303 305 305 304 307 305 306 307 307 307 307 306 303 304 303 301 298 297
323 321 318 318 318 317 316 316 315 315 315 315 312 308 309 313 313 312 312 312 311 310 309 309 309 309 309 310 310 308 308 308 306 302 300 302 306 308 307 306 305 304 304 303 302 302 301 299 299 299 298 298 298 301 302 303 304 303 302 303 301 302 303 302 303 305 306 305 304 303 304 307 305 305 306 305 307 308 307 307 305 302 300 297 297
322 319 315 314 315 315 316 315 315 314 314 313 303 299 299 303 312 313 312 311 311 310 310 309 308 308 309 308 310 308 308 306 307 299 298 298 298 300 301 304 307 306 304 303 302 302 300 300 301 300 299 298 300 302 303 303 303 302 303 303 302 301 300 298 297 302 308 304 303 303 303 307 307 304 305 305 306 307 307 305 300 299 298 297 297
320 317 314 314 314 315 315 316 315 315 315 306 297 297 297 298 305 313 313 311 311 310 310 309 309 309 308 309 310 310 310 309 309 304 301 297 296 296 295 296 295 296 298 304 304 302 302 300 300 300 300 300 302 303 302 302 302 303 304 303 302 301 300 299 298 298 303 306 303 302 302 306 307 305 305 305 306 307 307 303 299 298 297 297 297
318 315 315 315 314 315 315 315 315 315 315 299 296 296 296 297 299 307 312 312 311 310 310 310 309 309 309 309 309 311 312 310 308 308 306 304 298 295 296 296 295 293 292 292 296 305 305 302 300 300 301 302 302 302 304 303 305 304 303 302 303 303 302 300 300 301 304 308 304 302 299 304 305 303 302 304 305 307 307 302 300 298 297 297 297
316 317 318 316 314 314 315 316 316 315 315 300 296 296 296 295 296 302 312 312 311 310 310 310 310 310 309 309 308 309 310 309 308 307 307 307 306 304 303 303 303 300 294 291 292 292 301 304 302 301 305 304 302 304 306 305 304 303 303 301 304 303 302 302 305 305 307 309 303 301 299 301 304 303 301 303 305 306 307 303 298 298 297 297 297
318 318 317 316 314 314 314 316 315 314 315 298 295 295 295 295 295 300 313 312 311 311 311 311 310 310 310 311 311 309 309 308 309 306 306 306 306 305 304 303 304 303 302 302 304 305 305 306 307 307 308 307 306 306 307 307 306 305 305 305 305 305 305 307 306 308 307 309 306 303 298 301 304 301 301 302 304 304 305 301 300 298 298 297 297
319 319 319 317 314 313 314 313 313 312 313 295 295 295 294 294 295 309 312 311 311 310 310 310 310 311 311 311 309 308 309 308 304 297 302 306 305 304 302 302 302 303 303 305 299 299 306 308 308 308 309 310 300 308 307 305 305 306 305 304 305 305 304 301 299 302 301 306 306 302 300 300 304 301 301 303 304 303 304 304 300 300 299 298 297
317 318 319 317 315 315 313 312 313 313 313 298 294 294 294 293 299 311 311 310 310 310 309 310 309 310 310 309 309 309 308 306 299 292 294 299 304 302 301 301 301 301 301 305 298 293 293 292 292 292 292 291 291 291 291 292 300 303 303 302 302 304 300 298 299 300 300 302 306 305 302 299 303 302 301 302 303 302 303 303 305 301 300 298 298
318 319 319 317 316 315 313 313 314 314 313 302 294 294 294 294 303 311 310 310 309 309 309 309 309 309 308 307 307 308 307 306 293 291 291 298 302 301 301 300 300 300 301 305 305 304 293 292 292 292 291 291 291 291 291 291 291 296 302 300 303 302 300 300 298 299 301 302 303 305 301 300 302 303 301 301 302 304 303 303 304 305 301 300 299
320 320 318 315 313 314 314 314 310 312 313 303 294 294 294 294 304 312 310 310 309 308 308 308 309 308 308 306 304 305 307 303 290 291 291 297 302 301 301 301 300 301 302 305 305 305 306 307 307 304 302 297 301 304 304 293 292 296 303 305 306 303 300 299 299 300 298 300 305 306 299 300 301 301 302 299 296 299 302 303 304 304 305 305 304
Wind_Speed
7 7 6 5 5 5 5 4 4 3 3 3 3 4 4 4 4 5 5 6 6 7 7 7 7 7 7 7 7 6 6 6 6 6 6 6 7 9 12 11 11 11 12 12 12 13 13 13 13 13 12 12 12 12 12 11 11 11 11 11 11 10 11 13 10 13 13 12 12 13 13 13 14 15 15 16 17 18 18 17 17 17 18 18 18
7 6 6 5 4 5 5 4 4 4 4 4 4 4 4 4 4 5 7 7 7 7 7 7 7 7 6 7 7 6 6 6 6 6 6 6 7 8 12 11 10 11 11 11 12 12 12 12 12 12 11 11 10 10 10 10 10 10 10 11 11 10 12 11 11 13 12 12 12 13 13 14 16 16 17 17 17 18 17 17 17 17 17 18 19
7 7 6 6 6 4 4 4 4 5 5 5 5 5 4 4 5 6 6 6 7 7 7 7 7 7 7 7 6 6 6 5 5 6 6 6 6 7 9 11 10 11 10 11 12 12 12 11 11 10 9 9 9 9 9 9 10 10 10 10 11 10 11 11 11 13 13 11 10 12 14 15 13 16 17 17 17 17 17 17 18 18 18 17 17
6 6 6 6 6 5 4 5 6 6 6 6 6 5 5 5 6 6 6 7 7 7 7 7 7 7 7 7 6 6 6 5 5 5 6 6 6 6 6 8 11 11 10 9 10 11 10 10 10 8 8 8 8 8 9 10 9 10 10 10 11 10 11 10 12 12 11 10 11 14 14 12 16 17 15 16 17 16 17 17 17 17 17 17 18
6 6 6 6 6 6 6 6 6 6 6 6 6 6 6 5 6 6 7 8 8 8 8 6 7 7 7 7 6 6 5 5 5 5 6 5 5 5 5 6 8 10 10 9 9 8 9 8 8 7 7 7 8 8 9 9 9 9 10 10 10 9 9 10 12 11 9 10 13 14 11 14 16 15 15 17 17 17 17 17 18 18 18 18 18
6 6 5 5 6 6 7 6 5 6 6 6 6 6 6 7 7 7 7 7 8 8 7 7 6 6 6 6 5 5 5 5 5 5 5 5 5 5 5 5 4 5 7 9 8 8 8 8 7 7 6 6 6 6 9 9 9 9 9 10 10 8 8 9 10 9 8 11 13 12 10 12 14 13 15 16 16 17 17 18 18 18 18 19 19
6 6 6 6 6 6 7 6 6 6 6 6 6 7 6 7 7 7 7 7 8 8 7 7 7 7 6 5 5 5 4 5 5 5 5 5 4 4 4 4 4 4 4 5 7 7 7 7 7 7 7 7 6 6 8 9 9 9 9 9 9 7 7 8 8 8 8 11 10 9 10 13 12 13 15 15 16 16 17 18 18 18 19 19 19
6 6 6 6 6 6 6 6 7 6 6 7 6 7 6 6 6 7 8 7 8 8 6 7 7 7 6 5 5 5 5 4 5 5 4 4 4 4 4 4 4 4 4 4 4 6 7 7 7 8 8 8 7 7 7 8 8 9 8 8 8 7 6 7 7 8 8 9 8 9 10 11 12 12 14 15 16 16 16 16 17 18 18 19 19
6 7 6 6 5 6 5 6 6 6 7 7 6 6 7 6 6 5 7 8 9 9 7 7 7 6 6 5 4 4 4 4 4 4 4 4 4 4 4 4 4 5 4 4 5 6 8 8 8 7 7 7 7 6 6 8 8 8 8 8 7 7 7 7 6 6 7 8 7 9 9 10 12 13 14 15 16 15 17 16 17 17 18 20 20
7 7 7 6 5 5 5 6 6 7 7 6 6 6 6 7 7 5 5 8 8 9 8 7 7 6 6 5 4 4 4 4 4 4 4 5 4 4 4 4 5 5 5 4 5 4 5 6 5 5 6 6 6 5 6 7 8 8 7 8 8 7 7 7 6 5 5 7 8 8 8 9 11 12 13 15 16 15 16 17 17 17 18 18 19
7 8 7 7 6 6 5 7 7 6 6 6 7 7 6 6 8 7 4 5 7 8 8 8 7 6 6 5 4 4 4 3 4 4 4 5 5 5 4 5 5 4 5 5 4 4 4 3 2 2 4 5 5 5 5 7 8 7 7 8 8 8 7 8 7 7 6 6 7 9 9 10 10 12 12 15 15 15 15 16 16 17 18 18 19
8 8 8 7 6 6 6 6 7 6 7 8 7 7 9 9 8 10 8 6 6 7 9 9 8 7 6 5 4 4 4 4 4 4 4 5 5 5 5 5 4 4 4 3 3 2 1 1 1 1 2 4 3 4 5 7 7 7 7 8 8 8 8 8 8 8 7 7 7 8 10 10 10 11 13 14 14 15 15 16 16 16 16 18 19
9 8 8 7 6 6 6 6 6 7 7 7 8 9 8 8 8 7 10 9 7 7 8 9 10 7 5 5 4 3 3 3 4 4 4 4 4 4 4 4 4 4 4 2 2 1 1 1 1 1 2 2 3 4 5 6 6 7 7 7 8 8 8 8 8 8 8 7 8 8 9 9 10 10 12 13 13 14 14 15 15 16 17 18 19
9 9 9 8 6 6 6 7 6 6 5 6 8 8 9 8 8 7 5 9 8 10 9 10 7 7 8 6 4 3 2 3 4 4 4 4 4 4 4 4 4 4 3 3 2 1 1 1 1 2 2 2 1 1 1 2 4 6 7 7 7 8 8 7 8 9 9 8 7 8 8 9 10 11 12 12 12 13 13 13 14 15 16 17 18
9 9 9 8 7 6 7 6 7 6 6 7 8 9 9 10 10 9 8 4 6 7 10 6 6 6 5 6 5 5 4 3 3 4 5 4 4 4 4 4 5 4 3 3 3 2 1 1 3 3 3 2 1 1 2 3 5 6 6 6 7 7 8 7 8 9 9 9 8 8 8 8 9 11 11 11 12 12 12 13 14 15 16 17 18
10 10 9 6 7 7 6 7 6 6 6 8 8 8 8 9 8 8 10 8 7 8 7 2 6 10 6 4 4 4 4 7 7 6 6 6 6 5 4 4 5 4 3 4 3 3 2 3 4 3 2 2 2 2 2 2 3 3 5 6 6 7 8 8 8 9 9 9 8 8 8 8 9 10 11 11 11 12 13 14 15 16 16 18 19
10 10 9 7 7 7 7 7 6 6 5 5 3 7 9 9 10 9 10 10 9 7 7 3 6 2 4 5 3 3 4 3 7 4 6 6 7 7 6 6 5 5 5 4 4 3 3 4 4 3 3 3 3 2 2 2 2 3 2 5 6 7 7 7 8 8 9 9 8 8 9 9 9 9 10 11 12 13 13 14 15 16 17 18 19
10 10 10 7 7 8 8 8 7 6 6 10 9 6 8 9 10 9 9 8 10 9 8 5 6 2 2 2 2 2 3 5 6 3 5 5 5 7 7 7 6 5 4 5 6 4 4 5 4 4 4 3 3 2 2 2 3 3 3 4 5 6 6 7 7 7 8 8 9 9 9 9 9 9 11 12 13 13 14 14 16 17 18 19 20
10 9 10 8 8 8 8 8 8 8 8 8 8 9 8 9 8 8 8 7 8 9 10 8 4 4 3 0 1 1 4 6 4 4 5 5 5 6 7 7 6 6 5 6 6 5 4 4 4 4 4 4 3 2 1 2 2 3 5 5 4 4 5 6 7 8 8 9 9 9 9 10 10 10 11 12 13 14 14 15 16 17 19 20 22
10 10 10 8 7 7 8 8 8 9 9 9 9 8 7 7 8 8 7 7 9 9 9 8 10 8 6 4 2 2 4 1 4 5 2 5 6 5 5 6 5 4 3 4 6 6 6 5 5 5 4 4 3 2 2 2 2 2 2 5 4 4 5 6 7 7 9 9 9 9 10 10 10 10 11 12 13 14 15 16 17 18 20 21 21
10 11 9 8 8 8 8 8 8 9 9 9 8 9 10 9 8 7 7 7 7 6 7 8 8 6 7 5 3 4 4 1 2 2 3 4 5 8 8 6 5 4 3 3 4 5 6 5 3 4 4 4 3 2 1 1 1 1 3 4 4 3 4 6 7 7 8 9 9 10 10 10 11 12 12 13 14 15 16 17 17 18 19 20 21
9 9 7 8 8 8 8 9 9 9 8 8 8 8 8 8 9 8 8 8 6 5 6 6 7 5 8 6 7 4 3 3 3 4 2 4 4 8 9 10 9 6 3 4 5 6 6 5 5 5 4 3 3 2 1 1 1 1 3 5 4 4 4 5 5 7 8 8 9 9 9 10 11 12 13 14 15 16 16 17 18 18 19 19 19
8 9 8 8 8 8 8 8 7 6 6 8 8 9 8 7 7 8 8 8 6 6 3 3 5 5 7 7 8 8 7 7 6 6 6 5 4 5 7 9 9 6 5 3 4 6 6 5 5 4 4 3 2 1 1 1 1 3 2 4 5 5 4 4 4 4 6 8 8 8 9 10 11 13 14 15 15 16 16 17 17 17 18 18 19
9 9 9 8 7 7 7 7 6 6 8 7 7 6 6 5 5 5 5 6 5 6 5 5 7 6 7 7 7 7 6 6 5 6 6 6 6 5 6 6 5 4 5 4 5 6 6 5 5 5 4 3 2 1 1 1 3 3 3 3 4 5 5 4 3 3 3 6 7 8 9 10 11 12 13 14 14 14 15 16 16 16 17 18 20
10 11 10 9 8 7 7 7 6 7 7 5 5 2 4 5 5 6 6 7 6 6 6 7 8 8 8 6 6 6 7 5 3 4 5 4 5 4 3 5 6 5 6 7 5 5 4 5 5 5 4 3 2 1 1 0 1 4 5 3 3 4 5 5 4 3 4 4 6 7 8 9 11 11 12 12 13 13 13 14 13 13 16 17 18
9 8 9 9 8 8 8 7 6 6 5 7 8 6 5 5 5 5 6 5 4 7 7 7 7 7 5 6 7 6 6 3 4 4 5 5 6 6 5 3 3 6 5 6 6 7 4 4 4 4 3 3 2 2 1 0 1 2 4 2 2 3 4 5 5 4 5 4 5 6 8 9 9 11 11 11 11 11 11 11 13 15 15 16 17
9 8 9 9 9 8 8 7 6 5 5 7 6 6 5 4 4 3 3 2 4 5 6 7 6 7 6 6 6 5 4 4 4 6 6 6 6 6 7 7 4 4 6 5 6 7 5 5 4 4 3 3 2 1 1 1 2 1 5 2 1 2 3 5 6 5 5 6 6 7 7 8 8 9 10 10 9 9 11 13 15 15 16 17 18
7 8 9 9 9 8 7 7 6 5 5 7 7 5 5 5 4 4 5 3 4 6 5 6 6 6 6 5 4 5 3 3 4 4 5 5 5 5 7 8 8 7 6 6 6 6 7 6 4 3 3 3 2 1 1 3 1 2 5 1 1 1 3 5 5 6 7 7 7 8 8 8 8 9 10 10 11 12 13 14 15 16 16 17 18
8 8 9 8 8 8 8 8 8 6 5 6 5 4 5 5 4 4 4 4 4 5 4 5 5 5 4 6 5 4 3 3 3 2 3 3 4 5 7 8 8 7 7 8 8 7 8 7 5 5 3 3 3 2 3 1 2 3 0 1 1 0 4 5 5 6 7 7 7 8 9 9 10 10 11 12 12 13 13 14 15 15 16 17 18
8 8 8 9 8 8 7 8 8 7 7 7 6 6 5 3 3 3 2 4 4 3 4 4 4 4 4 4 4 3 3 3 3 2 2 3 4 5 6 6 7 9 7 8 6 7 6 6 4 5 5 4 3 2 1 1 2 5 1 1 1 2 5 5 4 5 6 7 7 8 8 8 10 11 12 12 13 13 14 14 15 15 16 17 17
8 9 8 9 8 8 7 8 7 8 8 7 7 6 6 5 5 5 4 5 5 5 4 4 4 4 5 5 4 4 4 3 3 3 2 3 3 4 4 5 5 7 7 7 6 4 3 7 5 3 5 5 3 3 2 1 1 3 1 1 1 4 7 2 2 5 6 7 8 8 10 9 9 10 11 12 13 13 14 14 15 15 16 16 15
9 10 10 10 10 9 8 7 8 7 7 7 7 6 6 5 5 5 5 6 5 5 5 4 3 5 6 6 5 4 4 4 4 3 3 2 1 2 3 4 4 4 4 5 7 3 3 3 5 5 5 4 4 3 3 2 3 6 1 1 1 4 2 0 1 2 5 7 8 8 9 9 9 10 11 11 12 13 14 14 14 14 14 14 14
10 10 10 11 10 9 9 8 9 8 8 8 6 6 5 5 5 5 6 6 6 5 5 5 4 5 6 6 6 5 5 5 4 3 3 3 2 2 1 3 3 3 4 5 5 5 4 2 4 5 5 4 5 3 3 3 2 2 3 1 1 1 1 1 1 2 3 7 8 8 8 9 9 10 10 11 11 12 12 12 12 12 13 14 14
11 11 11 10 9 10 9 9 8 8 8 8 7 6 6 6 5 4 5 7 6 6 6 6 6 4 5 6 6 5 4 5 5 4 4 3 3 3 3 2 3 3 3 5 5 5 7 5 5 5 5 5 5 5 4 3 2 1 1 0 2 1 1 2 2 1 1 6 8 8 9 9 9 9 9 10 10 11 11 12 12 13 13 13 14
10 10 11 10 10 10 8 8 8 8 8 8 7 7 6 7 7 6 5 6 7 7 7 6 7 5 6 6 6 5 4 5 5 4 4 4 3 3 3 2 2 3 4 4 5 6 8 7 7 7 6 6 5 5 3 2 2 1 2 1 2 1 1 2 2 3 2 4 7 8 9 9 9 9 9 10 10 11 12 12 13 13 13 13 14
10 9 9 10 9 9 9 8 8 8 8 7 7 7 7 7 7 7 7 6 6 7 7 7 7 6 7 7 6 6 6 6 5 4 4 4 4 4 4 3 3 4 4 4 6 6 7 7 7 7 6 5 4 2 1 3 2 2 2 3 3 3 3 2 2 3 3 5 7 8 8 8 8 9 9 10 10 11 12 12 13 13 13 13 14
10 9 9 9 9 9 8 9 9 8 8 8 8 7 6 6 7 6 7 6 6 6 5 6 6 7 7 7 7 7 7 6 6 5 4 5 4 4 4 4 4 4 3 4 4 5 6 6 6 4 3 4 1 0 1 2 1 2 2 3 1 3 4 4 2 2 5 7 7 6 7 8 8 8 9 10 10 10 11 12 13 13 13 13 13
11 10 11 9 10 10 9 9 9 8 8 8 8 8 7 7 6 5 5 5 6 5 5 5 6 6 7 7 7 7 7 7 6 5 5 6 5 5 5 4 4 4 4 3 4 5 6 6 6 5 4 3 2 2 1 2 3 3 3 3 2 1 2 4 3 2 3 3 4 5 5 6 6 9 9 9 10 10 10 12 12 12 12 12 13
12 11 10 10 9 10 10 9 9 9 9 8 8 8 8 8 7 7 6 6 6 5 5 6 6 6 6 6 7 7 7 7 7 7 7 7 6 6 6 5 3 4 4 5 5 5 6 6 5 4 5 2 1 3 1 0 1 1 3 4 3 4 3 2 3 2 4 5 5 2 5 7 9 8 9 10 9 9 10 11 12 11 10 11 13
12 12 12 12 9 9 9 9 9 8 8 8 8 8 8 8 8 8 7 7 7 6 5 5 5 6 6 6 7 7 7 7 8 8 8 7 6 6 3 3 4 5 5 5 4 5 5 5 5 4 3 3 3 1 1 2 3 3 1 2 4 5 5 4 2 3 3 5 6 5 3 5 6 7 10 11 9 7 9 9 9 8 10 12 13
9 11 11 11 11 10 8 8 9 8 8 8 7 8 9 9 8 8 8 8 7 7 6 6 6 6 6 5 6 6 6 7 9 8 8 6 6 6 4 4 5 5 4 4 4 4 4 5 4 3 4 4 4 3 3 3 2 2 0 1 3 3 4 5 3 0 3 5 6 6 5 5 6 7 6 6 6 7 6 7 6 9 13 14 15
10 10 10 10 11 11 10 9 8 7 7 6 8 13 11 9 9 7 7 7 8 7 7 7 6 6 6 5 5 8 8 8 9 9 8 7 7 5 5 5 5 4 4 5 4 4 4 5 5 5 5 5 5 5 4 2 0 1 2 2 3 4 4 5 3 1 1 3 6 6 6 4 6 7 7 7 6 6 7 7 9 10 12 14 14
11 10 8 9 9 9 10 10 10 8 7 6 13 14 13 12 10 8 8 8 7 8 7 8 7 7 6 6 6 8 8 7 7 8 7 7 6 3 5 5 3 6 6 5 5 5 5 5 4 5 5 6 6 5 3 1 2 3 2 2 3 4 4 5 6 4 2 4 5 6 7 5 5 7 7 7 7 7 7 7 10 12 13 14 14
10 10 9 10 9 9 8 10 10 8 7 10 16 14 14 13 10 9 8 8 7 7 8 8 7 7 7 7 6 5 6 7 7 7 6 5 5 3 4 5 3 2 3 3 6 6 6 5 5 6 6 6 5 4 3 2 3 4 3 3 3 3 4 5 5 5 3 0 5 6 7 5 4 6 7 7 7 7 7 8 10 11 13 14 14
11 12 12 11 10 9 10 11 10 9 8 13 16 16 14 14 13 10 8 8 8 8 8 9 8 8 8 7 6 5 5 7 6 7 7 7 4 4 3 5 4 6 6 2 3 4 6 6 6 6 6 4 4 4 4 3 2 4 3 4 2 3 4 5 5 6 5 2 5 5 7 6 4 7 7 7 7 7 7 6 10 12 12 13 14
11 12 12 12 10 10 11 11 10 9 9 14 17 16 15 15 14 10 8 9 8 9 9 9 8 9 9 9 8 6 5 7 6 7 7 7 6 5 4 5 6 6 5 4 5 4 4 5 5 5 3 3 4 3 3 3 4 4 3 4 3 4 4 5 7 7 7 3 4 4 7 5 5 6 7 8 8 8 7 8 10 10 12 13 14
13 13 13 12 10 10 10 9 9 9 8 16 16 16 15 15 14 10 7 7 7 8 8 9 9 9 9 8 7 7 7 7 6 7 7 6 5 4 5 5 6 6 7 7 6 6 5 4 4 4 2 4 4 3 2 3 3 3 3 4 4 4 5 6 8 7 6 2 1 3 7 8 5 6 7 8 8 8 8 8 7 11 12 13 13
10 10 11 11 11 11 10 10 8 9 8 17 16 17 16 15 15 8 8 8 8 8 8 8 7 7 8 8 8 8 6 7 8 9 6 5 5 5 6 6 6 4 3 3 2 3 3 3 4 4 3 1 3 2 1 2 2 2 3 3 3 4 5 5 5 4 6 1 1 4 6 8 6 6 7 7 8 8 8 8 9 10 12 13 13
10 10 11 11 11 11 12 11 11 10 9 15 16 17 16 16 13 8 8 8 7 8 7 7 7 7 6 8 8 7 7 6 9 11 9 7 6 7 7 6 4 3 4 3 2 3 4 5 7 6 5 5 3 3 3 3 3 2 3 4 6 4 5 6 5 4 4 5 2 3 5 7 6 7 7 6 7 8 7 9 10 10 11 12 11
11 11 10 10 10 11 13 13 12 11 9 14 18 17 17 18 14 10 9 8 8 7 7 7 7 7 7 8 7 7 7 7 12 11 11 8 6 7 6 6 5 5 4 3 2 3 5 5 6 6 6 6 7 7 8 8 7 6 5 6 5 3 6 5 6 5 6 5 1 2 5 6 8 6 8 8 7 5 6 8 9 9 10 10 11
12 11 11 10 9 9 10 10 14 12 9 13 18 18 19 19 14 9 9 8 8 7 7 7 6 6 6 8 9 7 8 8 13 12 12 10 7 7 8 7 7 7 5 4 4 5 5 5 4 4 5 7 7 6 6 10 10 10 8 7 5 5 6 6 6 6 6 4 3 3 5 6 7 7 7 8 9 7 5 8 9 10 10 10 12
Wind_Direction
167 166 168 179 170 171 168 172 172 166 161 153 162 152 142 150 151 149 144 143 140 143 147 143 142 138 135 126 116 112 108 108 106 104 99 100 95 95 97 99 104 109 111 110 109 107 103 98 98 98 97 95 88 84 81 73 66 61 61 63 57 49 53 56 44 57 46 33 36 33 32 32 27 22 19 19 14 14 13 10 7 5 2 0 1
160 163 167 168 169 165 174 171 171 161 163 154 164 156 143 145 149 144 144 147 142 147 149 147 143 134 130 123 118 115 112 113 111 107 105 99 99 101 99 102 106 107 106 106 102 99 99 102 104 103 100 96 91 85 78 73 69 63 57 61 57 45 53 52 40 58 47 36 35 34 31 28 27 24 20 16 13 13 9 6 5 4 3 3 2
167 166 170 165 167 174 177 167 163 160 161 152 156 152 144 148 149 145 146 141 143 150 156 148 137 129 126 124 119 117 112 109 108 107 105 104 108 107 104 101 100 102 102 103 104 102 101 101 102 100 95 86 81 81 79 72 72 66 57 59 57 41 51 50 44 47 47 34 28 39 33 30 28 28 22 17 15 11 7 10 8 5 2 1 358
173 170 175 168 170 179 174 167 166 161 164 160 157 151 152 141 137 132 131 141 146 152 150 147 136 129 127 120 122 119 118 114 111 106 103 105 107 110 112 109 104 103 103 103 106 111 112 110 107 106 99 91 83 79 76 75 72 65 58 58 57 43 48 46 49 49 45 33 29 38 37 23 40 28 17 19 18 15 13 11 7 4 2 360 357
184 183 178 177 175 176 179 180 173 165 166 166 155 148 149 141 136 132 137 143 144 146 147 134 129 127 128 128 125 121 115 117 112 109 110 109 110 114 115 115 110 99 94 97 98 103 106 103 95 87 76 84 87 78 74 71 67 62 57 57 55 47 49 47 53 47 41 31 41 40 27 32 38 20 18 21 18 16 14 9 6 3 1 360 358
181 181 177 181 184 188 184 182 176 167 164 165 164 163 155 147 147 144 138 147 150 148 144 136 128 129 127 123 117 114 124 117 112 109 112 112 112 118 122 120 114 113 107 95 93 92 83 79 78 72 80 85 79 70 71 65 62 55 53 56 55 47 44 52 55 45 33 40 45 34 21 27 37 16 19 21 24 16 12 7 7 5 5 3 1
184 178 181 189 192 194 192 180 167 170 171 171 168 161 153 152 154 149 139 140 147 150 141 134 138 133 124 120 119 126 122 115 114 117 112 112 122 120 121 119 116 120 125 127 110 95 89 89 87 81 74 74 72 57 57 63 56 56 48 52 54 45 47 48 55 47 29 50 46 36 25 27 30 16 14 23 19 19 11 11 10 11 10 5 2
183 188 182 194 202 201 192 175 171 175 172 163 162 154 150 149 152 148 141 143 155 148 134 133 133 126 122 122 126 132 124 123 120 118 115 132 127 131 127 122 131 121 118 112 111 106 110 106 91 79 70 59 49 43 41 50 52 52 50 42 47 41 35 51 52 49 31 51 42 38 30 27 22 14 14 13 29 16 11 15 13 11 7 5 3
185 190 196 195 204 210 189 173 176 176 161 158 161 150 148 142 142 152 148 144 146 137 133 132 126 123 119 116 121 128 126 121 121 112 126 129 134 136 134 131 124 127 129 117 116 116 110 107 100 79 61 42 39 43 43 42 47 45 44 35 33 37 24 35 48 45 36 29 31 36 26 26 18 7 13 10 24 11 9 12 12 8 8 9 3
189 192 198 200 205 206 190 176 178 171 157 158 148 146 145 145 139 139 146 145 145 145 139 131 124 124 114 111 118 122 116 122 123 136 141 137 136 136 130 131 132 129 124 121 115 118 121 108 88 76 58 41 33 49 49 45 42 39 33 29 25 28 26 17 24 39 37 25 17 24 16 22 14 9 9 11 17 11 11 12 14 10 12 9 6
191 196 200 199 202 200 186 176 178 164 152 149 141 144 142 144 143 136 123 137 144 142 137 130 122 115 111 114 116 113 127 134 143 149 140 135 132 132 141 137 134 134 125 124 124 117 108 106 125 111 90 48 49 52 57 41 37 34 27 19 20 21 23 10 14 14 17 21 18 8 354 13 9 11 8 13 17 11 14 14 13 14 14 10 5
195 197 202 201 193 186 185 176 178 161 154 150 150 154 151 141 140 140 132 111 113 128 130 128 114 105 107 105 104 125 141 150 152 150 147 147 146 152 149 148 147 142 144 138 140 117 131 136 124 89 81 91 53 49 38 22 20 36 25 14 11 16 16 6 7 8 13 9 11 12 350 19 11 13 7 17 16 14 15 14 14 14 12 9 5
195 196 203 197 192 179 178 176 175 169 162 157 152 147 147 143 136 138 138 132 132 142 141 136 128 112 108 116 119 118 131 159 163 161 161 161 159 166 159 164 159 160 165 176 151 163 172 156 108 117 98 109 133 88 42 36 39 34 22 12 8 9 8 7 2 3 9 9 3 13 350 14 9 12 7 21 16 13 12 10 10 11 8 8 7
191 199 202 197 186 174 177 176 175 170 150 136 136 138 143 141 139 129 141 145 148 161 155 147 154 155 152 150 143 145 139 175 183 175 178 177 179 179 178 181 179 178 172 186 171 189 183 132 112 116 121 123 78 64 92 115 81 35 22 12 9 5 1 7 1 360 1 3 5 11 0 9 5 11 8 20 13 10 7 4 5 5 4 4 1
192 197 200 196 182 174 178 173 178 154 142 145 144 148 155 153 156 147 141 133 141 162 170 200 158 136 129 135 164 177 173 206 205 204 198 199 191 195 195 198 199 200 189 197 179 181 165 136 135 134 122 120 106 110 106 79 53 37 25 18 11 5 0 4 358 354 355 355 7 7 11 1 8 8 6 13 8 3 358 358 359 359 359 356 354
198 198 202 187 181 179 169 174 170 164 156 154 157 156 158 160 161 154 144 143 162 171 194 229 157 142 162 212 149 210 197 205 194 196 203 205 208 206 206 209 210 204 220 208 184 182 163 148 145 128 122 114 120 118 92 52 71 58 42 24 21 12 2 358 353 350 351 354 3 1 10 360 10 2 3 4 359 355 351 350 352 353 352 352 352
199 200 201 182 180 179 171 170 162 152 135 81 139 171 171 169 164 159 165 154 162 172 190 205 191 206 146 136 143 207 240 102 167 178 188 208 213 212 201 212 207 202 205 192 179 178 167 162 146 130 131 130 125 112 87 53 31 14 42 47 24 17 9 356 352 351 351 356 1 1 1 4 7 358 1 357 352 352 350 347 347 347 348 350 348
197 200 198 178 178 177 171 166 158 148 134 160 178 176 182 174 176 171 174 168 158 167 178 194 213 209 282 344 341 328 140 142 177 175 175 213 210 206 204 203 202 202 202 185 187 176 171 166 152 145 139 130 117 102 67 51 19 15 1 40 25 27 24 9 359 357 355 360 3 359 359 3 356 357 357 354 352 351 349 346 344 345 346 345 343
198 197 194 181 176 174 171 169 159 158 159 160 178 189 183 181 176 182 178 170 156 170 181 178 185 230 210 239 19 7 140 146 196 125 181 181 210 201 209 206 202 214 201 194 187 175 178 170 162 146 136 133 116 104 98 68 56 45 40 20 21 29 34 25 20 12 0 360 1 357 358 1 352 358 359 359 356 354 351 346 344 344 343 344 347
196 197 193 178 176 174 173 169 164 157 172 183 186 184 181 184 183 184 173 174 179 178 178 173 183 195 192 190 157 122 156 19 176 211 227 176 182 195 199 191 197 212 221 207 199 189 169 175 167 157 150 131 124 102 67 47 25 8 47 15 12 18 37 32 23 14 6 358 357 356 357 359 354 358 358 355 354 353 351 346 342 340 345 348 346
199 196 189 179 175 177 174 173 171 169 179 183 183 178 180 175 180 183 183 184 191 191 173 183 195 184 163 195 182 168 166 143 166 189 228 208 188 181 187 175 205 190 196 202 202 184 173 172 160 149 139 131 125 100 61 33 28 28 44 12 4 12 40 35 21 10 5 360 357 354 357 357 353 353 352 349 348 347 345 342 340 341 344 345 347
193 195 183 181 179 179 178 180 180 174 179 176 168 169 178 185 183 183 184 188 194 199 199 185 190 179 183 175 186 159 174 177 183 194 222 251 237 192 183 180 196 186 169 180 178 176 165 152 161 162 145 140 129 132 83 57 33 1 50 4 5 2 38 35 19 11 2 1 354 352 354 354 351 351 350 347 345 344 342 341 342 342 343 346 346
184 191 191 181 183 184 183 183 180 173 170 164 174 178 181 182 179 179 185 187 186 191 179 161 196 189 190 193 200 191 197 202 195 194 214 203 214 206 190 196 198 171 172 164 181 172 162 154 162 156 146 143 135 128 102 65 108 61 23 11 9 4 29 43 15 14 356 354 348 346 351 351 348 348 346 345 345 345 343 343 344 345 347 345 343
186 187 188 186 182 187 183 177 178 181 184 179 175 175 170 174 171 182 192 196 193 190 182 175 192 199 197 201 212 211 215 222 212 197 206 222 217 222 192 175 184 169 130 144 169 161 164 164 163 155 160 144 140 102 98 233 91 51 284 52 3 7 20 31 27 16 332 340 338 342 353 353 350 349 349 350 350 347 345 347 349 347 343 340 339
191 192 188 181 181 176 178 181 181 191 188 167 89 148 164 174 174 173 185 195 197 191 190 194 191 199 200 201 215 214 220 215 209 205 214 233 228 221 144 173 195 160 155 160 161 160 156 164 165 166 161 149 135 123 79 351 30 47 300 129 2 13 5 16 16 3 338 316 323 344 352 355 353 354 352 351 350 347 347 347 341 336 335 333 335
181 182 177 177 186 185 177 178 177 176 170 101 147 193 159 187 177 183 190 196 188 190 200 198 200 206 198 194 207 214 220 193 203 198 196 202 214 215 149 158 179 171 158 186 164 169 170 169 168 163 162 152 128 135 206 45 160 102 316 286 125 9 356 358 353 350 342 322 315 344 349 345 347 349 346 343 340 346 341 336 338 338 333 334 334
178 174 166 181 184 180 176 167 155 176 136 137 157 169 162 165 164 152 149 160 180 195 205 195 195 201 200 209 205 212 212 194 199 213 211 215 220 194 165 160 164 183 181 189 180 214 169 154 165 168 160 133 146 175 194 158 104 2 276 229 167 108 342 357 343 347 341 336 338 342 338 332 336 337 331 322 327 342 338 336 336 333 333 332 335
164 165 173 178 178 179 167 152 148 161 156 157 156 165 165 164 157 163 165 151 174 192 204 195 203 196 199 201 209 213 197 193 206 208 219 221 221 187 194 194 182 186 192 196 197 202 171 167 156 164 160 157 159 160 200 229 150 242 239 247 262 144 57 343 340 336 339 337 342 335 330 329 333 334 329 331 340 342 336 333 332 332 331 331 334
164 172 172 179 173 169 165 150 155 168 159 145 153 156 158 169 163 155 152 157 171 189 194 202 195 183 197 191 210 191 176 171 190 195 198 201 215 210 212 215 211 211 186 205 202 200 182 189 180 163 175 163 173 180 213 249 72 292 330 263 265 262 30 329 329 327 328 332 337 328 328 335 338 337 336 339 339 339 335 332 333 331 329 330 332
166 171 170 171 169 168 162 156 157 161 151 153 162 154 151 137 132 149 165 163 168 167 186 197 181 184 181 183 192 180 147 171 163 163 174 191 199 209 215 225 225 231 213 211 204 193 175 179 201 160 174 173 176 193 195 208 80 280 353 340 291 27 340 290 318 323 328 329 331 328 328 333 334 334 335 335 337 337 335 334 332 329 327 330 330
163 166 170 170 170 171 166 158 153 152 156 156 160 161 163 155 161 171 164 177 178 172 167 173 168 177 176 172 170 150 144 144 143 147 153 180 195 201 213 219 224 237 234 222 230 154 190 174 177 169 157 166 184 172 183 217 109 296 283 320 338 3 293 194 310 333 328 325 327 328 336 337 328 325 327 330 335 334 334 332 329 326 327 326 324
171 169 173 173 173 170 169 158 153 150 154 158 167 161 164 163 162 169 169 177 177 171 160 164 160 179 168 163 160 148 146 150 150 149 149 142 166 192 201 202 207 217 233 227 249 166 166 157 158 158 156 160 193 198 174 180 170 233 234 212 19 286 261 324 165 328 323 320 321 324 331 330 324 326 330 330 333 333 332 326 322 322 322 319 323
167 172 175 175 173 171 166 163 160 158 159 160 162 161 168 162 164 167 164 176 174 164 159 157 168 176 172 159 150 140 152 155 145 145 141 133 135 140 167 198 200 180 207 215 227 134 135 120 155 165 160 185 185 202 208 196 192 182 205 118 309 316 303 293 307 164 315 317 316 323 326 324 324 326 330 331 330 326 322 318 317 319 317 321 323
173 174 176 172 173 169 167 165 161 161 163 160 161 166 167 162 159 157 172 175 171 161 163 166 169 176 157 149 146 146 159 148 142 146 140 140 145 147 138 174 185 173 199 210 208 169 156 163 177 174 178 200 215 189 209 218 191 238 260 163 200 257 335 321 300 20 64 309 315 319 321 320 320 322 325 328 324 319 317 317 318 316 317 319 318
174 175 175 172 170 169 165 163 161 161 164 159 161 168 168 171 172 169 175 177 169 164 173 169 166 160 160 154 151 149 148 143 133 116 118 121 116 111 115 132 141 155 176 206 179 172 163 170 177 182 191 192 219 190 198 234 272 310 301 319 319 313 316 332 300 302 125 305 313 317 314 312 315 322 325 321 320 319 318 317 314 313 315 316 316
170 177 173 170 166 166 165 164 165 160 162 160 161 171 172 174 176 172 174 177 175 178 178 167 161 165 166 159 154 154 156 148 142 133 126 122 125 125 127 134 155 164 173 183 191 166 171 165 186 198 185 187 205 205 263 261 270 277 302 313 293 319 348 329 307 303 359 317 304 296 298 308 317 318 319 317 319 320 315 310 309 310 314 316 318
172 168 168 168 165 169 169 172 167 165 166 165 165 167 167 172 173 167 173 175 179 182 173 164 162 173 171 170 158 159 161 154 147 148 141 138 140 148 153 159 164 154 159 173 168 162 165 178 176 191 178 194 129 4 325 294 272 253 241 250 304 344 359 349 311 306 283 260 255 280 317 319 306 314 315 313 313 312 307 305 308 312 314 316 317
169 173 170 171 174 176 176 173 167 164 164 165 170 170 168 164 160 160 167 174 179 177 167 166 171 173 175 169 161 163 167 163 157 146 150 159 165 171 168 171 160 150 138 153 175 175 175 175 168 173 194 194 189 232 195 329 341 330 334 319 264 175 2 358 338 326 321 336 344 344 320 302 321 317 301 302 303 298 301 304 306 307 309 312 316
170 172 173 170 172 173 174 167 165 163 163 165 166 164 162 164 167 165 168 172 170 166 168 168 169 173 175 167 163 167 170 166 159 165 169 174 179 178 178 168 147 134 162 185 182 179 181 172 170 179 177 167 213 205 138 359 293 298 327 321 332 3 2 4 333 317 332 337 343 271 279 293 295 292 303 290 287 287 292 298 297 297 305 319 324
175 175 172 172 169 170 167 166 163 159 158 162 163 164 166 167 166 167 170 168 169 161 159 163 166 173 175 172 171 170 173 169 173 177 178 179 177 182 171 147 146 170 188 182 181 180 174 176 182 175 168 169 187 222 221 232 220 201 214 321 326 338 340 335 335 323 337 330 334 335 293 278 286 260 250 255 242 263 282 287 302 305 324 329 324
174 174 169 167 162 167 162 162 160 159 161 165 165 164 166 168 167 169 171 171 166 160 163 166 170 173 173 170 170 171 174 180 188 180 185 171 171 179 152 173 179 196 201 187 181 180 174 179 175 171 181 194 201 207 225 231 261 343 24 280 289 306 320 322 354 17 324 325 326 325 332 340 320 322 323 329 350 326 325 300 312 337 334 328 326
171 164 161 162 163 165 164 164 162 160 165 169 163 167 169 168 169 168 165 166 168 166 166 164 165 171 172 169 168 172 179 184 189 189 176 172 181 184 166 185 192 208 202 193 192 190 185 190 193 181 193 205 202 210 230 234 343 262 259 259 296 326 320 329 314 28 280 311 327 330 333 333 317 318 336 339 349 333 343 345 353 328 321 322 325
170 159 150 156 161 163 167 166 167 170 170 167 158 170 171 165 165 164 166 166 170 172 170 167 169 171 170 175 177 184 186 187 190 173 163 172 186 181 163 186 194 206 198 196 197 191 195 201 186 190 204 208 206 208 220 235 223 238 261 271 292 312 329 330 330 333 128 342 325 320 319 326 309 319 334 346 349 344 343 346 328 320 321 323 323
164 160 162 164 162 162 164 169 168 169 170 152 164 171 173 170 169 165 166 165 170 174 175 173 171 172 174 178 185 178 193 191 175 165 171 186 191 112 126 167 173 206 263 230 198 190 196 195 193 206 213 217 205 193 202 222 232 226 229 256 275 296 310 315 317 314 332 310 314 317 314 317 314 320 327 343 340 345 331 306 311 324 322 321 323
156 165 174 166 164 164 166 169 170 167 168 157 171 172 174 174 170 166 168 168 171 174 173 177 175 177 178 181 184 189 173 164 164 173 174 179 154 121 134 174 183 169 163 148 286 254 189 200 205 212 221 218 199 202 203 224 248 264 255 255 251 274 296 298 304 310 315 322 306 313 313 306 336 340 337 343 343 338 326 337 333 321 321 321 324
163 173 174 168 160 167 173 172 167 168 170 167 174 174 172 173 170 175 167 168 174 174 174 175 177 181 183 185 186 185 174 181 185 177 182 180 178 173 184 198 199 176 179 185 196 238 260 233 226 231 203 185 215 198 186 214 244 257 269 278 294 294 296 306 313 299 296 283 302 322 298 319 357 333 335 344 340 329 324 327 309 317 324 325 322
171 174 171 170 169 168 168 166 162 165 174 166 175 172 171 171 170 177 165 167 172 174 176 179 183 182 181 184 183 191 176 181 177 169 177 182 183 188 201 202 205 192 192 193 199 199 202 227 241 245 230 202 225 218 195 217 242 269 289 299 315 306 297 290 275 257 268 200 239 286 312 320 339 327 331 336 333 323 335 326 326 321 321 319 318
177 169 170 167 163 169 169 164 161 170 166 167 172 171 168 169 165 178 170 172 175 176 176 179 180 180 178 177 183 196 179 184 145 156 176 177 185 197 206 201 195 191 209 227 359 360 311 281 256 257 255 309 356 313 309 267 248 242 247 250 247 245 257 275 289 318 308 122 207 287 300 314 328 314 315 318 320 320 329 338 340 318 313 314 315
166 173 169 166 165 170 168 170 173 175 167 172 171 168 166 164 168 180 171 178 178 176 175 172 177 178 180 182 188 195 182 188 151 163 155 172 198 201 204 196 186 196 226 216 165 217 255 268 276 288 296 290 265 247 232 240 253 275 261 256 252 239 266 286 297 306 320 326 207 237 292 299 325 321 312 309 313 305 318 337 337 324 306 297 304
172 173 167 165 168 172 171 173 177 170 168 169 171 167 164 169 177 175 175 177 174 174 168 172 181 182 186 180 186 192 186 187 151 167 161 175 203 198 196 190 195 215 227 213 189 201 192 233 237 241 245 252 252 237 225 214 203 215 228 246 280 284 281 289 301 315 317 299 304 167 281 301 323 319 317 313 285 259 302 327 324 326 327 332 335
169 170 167 161 163 174 178 175 172 167 161 164 171 167 168 174 180 176 174 173 168 175 177 174 178 183 175 185 193 204 203 162 156 167 170 184 206 199 199 201 209 215 217 197 214 228 227 226 204 190 218 221 230 232 214 199 202 206 227 249 269 262 281 294 304 307 305 324 109 172 294 317 322 328 324 324 328 328 317 319 324 338 341 344 343